Location: Lafig�re
(44.4503°N, 4.0357°E)
Time: 01:59:29
(UTC+00:00)

Transit 4A - Pass Details

Date: 27 January 2021
Orbit: 866 x 979 km, 66.8° (Epoch: 24 February)

Event Time Altitude Azimuth Distance (km) Brightness Sun altitude
Rises 04:45:17 0° 312° (NW) 3,598 - -25.4°
Reaches altitude 10° 04:49:05 10° 289° (WNW) 2,623 - -24.7°
Maximum altitude 04:52:08 14° 259° (WSW) 2,296 - -24.1°
Drops below altitude 10° 04:55:10 10° 228° (SW) 2,574 - -23.6°
Sets 04:58:51 0° 204° (SSW) 3,485 - -23.0°
